Springfield, MO

8:32 PM CDT on September 19, 2017 (GMT -0500)
Springfield-Branson Regional

Weather History for KSGF - January, 2011

Change the Weather History Date:

Friday, January 14, 2011

  Actual Average Record
Temperature  
Mean Temperature 30 °F 32 °F  
Max Temperature 43 °F 43 °F 72 °F (1928)
Min Temperature 17 °F 22 °F -12 °F (1979)
Degree Days  
Heating Degree Days 35 33  
Month to date heating degree days 533 459  
Since 1 July heating degree days 2309 2269  
Cooling Degree Days 0 0  
Month to date cooling degree days 0 0  
Year to date cooling degree days 0 0  
Moisture  
Dew Point 19 °F    
Average Humidity 62    
Maximum Humidity 78    
Minimum Humidity 46    
Precipitation  
Precipitation 0.00 in 0.08 in 1.08 in (1937)
Month to date precipitation 0.12 1.18  
Year to date precipitation 0.12 1.18  
Snow  
Snow 0.00 in - - ()
Month to date snowfall 1.5  
Since 1 July snowfall 2.5  
Snow Depth T in    
Sea Level Pressure  
Sea Level Pressure 30.28 in    
Wind  
Wind Speed 8 mph (South)    
Max Wind Speed 25 mph    
Max Gust Speed -    
Visibility 10 miles    
Events      
T = Trace of Precipitation, MM = Missing Value Source: NWS Daily Summary

Daily Weather History Graph

Daily Weather History Graph

Search for Another Location

Airport or City:

Trip Planner

Search our weather history database for the weather conditions in past years. The results will help you decide how hot, cold, wet, or windy it might be!

Date:

Astronomy

Jan. 14, 2011 Rise Set
Actual Time 7:26 AM CST 5:18 PM CST
Civil Twilight 6:58 AM CST 5:47 PM CST
Nautical Twilight 6:26 AM CST 6:19 PM CST
Astronomical Twilight 5:54 AM CST 6:50 PM CST
Moon 12:36 PM CST (1/14) 2:27 AM CST (1/14)
Length of Visible Light 10h 48m
Length of Day
9h 51m
Waxing Gibbous, 71% of the Moon is Illuminated
Jan 14
Waxing Gibbous
Jan 19
Full
Jan 26
Last Quarter
Feb 2
New
Feb 11
First Quarter

Hourly Weather History & Observations

Time (CST) Temp. Windchill Dew Point Humidity Pressure Visibility Wind Dir Wind Speed Gust Speed Precip Events Conditions
12:52 AM 21.0 °F 10.6 °F 12.0 °F 68% 30.33 in 10.0 mi South 9.2 mph - N/A   Clear
1:52 AM 21.0 °F 11.4 °F 12.0 °F 68% 30.32 in 10.0 mi South 8.1 mph - N/A   Clear
2:52 AM 19.4 °F 8.6 °F 12.2 °F 74% 30.27 in 10.0 mi South 9.2 mph - N/A   Clear
3:52 AM 19.9 °F 11.1 °F 12.0 °F 71% 30.31 in 10.0 mi South 6.9 mph - N/A   Clear
4:52 AM 19.9 °F 11.1 °F 12.0 °F 71% 30.31 in 10.0 mi South 6.9 mph - N/A   Clear
5:52 AM 19.4 °F 9.5 °F 12.2 °F 74% 30.25 in 10.0 mi South 8.1 mph - N/A   Clear
6:52 AM 19.9 °F 11.1 °F 12.0 °F 71% 30.30 in 10.0 mi South 6.9 mph - N/A   Clear
7:52 AM 21.0 °F 11.4 °F 12.9 °F 71% 30.31 in 10.0 mi SSE 8.1 mph - N/A   Clear
8:52 AM 25.0 °F 15.5 °F 14.0 °F 63% 30.32 in 10.0 mi South 9.2 mph - N/A   Clear
9:52 AM 28.9 °F 20.4 °F 17.1 °F 61% 30.33 in 10.0 mi South 9.2 mph - N/A   Clear
10:52 AM 32.0 °F 24.8 °F 19.0 °F 59% 30.34 in 10.0 mi South 8.1 mph - N/A   Clear
11:52 AM 36.0 °F 31.1 °F 21.9 °F 57% 30.31 in 10.0 mi SSW 5.8 mph - N/A   Clear
12:52 PM 39.0 °F 34.0 °F 21.9 °F 50% 30.30 in 10.0 mi SW 6.9 mph - N/A   Clear
1:52 PM 41.0 °F 39.0 °F 23.0 °F 49% 30.27 in 10.0 mi South 3.5 mph - N/A   Clear
2:52 PM 43.0 °F - 24.1 °F 47% 30.25 in 10.0 mi Calm Calm - N/A   Clear
3:52 PM 42.1 °F 40.2 °F 26.1 °F 53% 30.26 in 10.0 mi South 3.5 mph - N/A   Clear
4:52 PM 39.9 °F 37.8 °F 25.0 °F 55% 30.26 in 10.0 mi South 3.5 mph - N/A   Clear
5:52 PM 36.0 °F - 26.1 °F 67% 30.27 in 10.0 mi Calm Calm - N/A   Clear
6:52 PM 32.0 °F 28.7 °F 25.0 °F 75% 30.27 in 10.0 mi South 3.5 mph - N/A   Clear
7:52 PM 36.0 °F 30.3 °F 25.0 °F 64% 30.24 in 10.0 mi South 6.9 mph - N/A   Partly Cloudy
8:52 PM 32.0 °F 24.2 °F 23.0 °F 69% 30.25 in 10.0 mi South 9.2 mph - N/A   Clear
9:52 PM 34.0 °F 26.0 °F 25.0 °F 70% 30.26 in 10.0 mi SSW 10.4 mph - N/A   Clear
10:52 PM 32.0 °F 25.6 °F 26.1 °F 79% 30.25 in 10.0 mi SW 6.9 mph - N/A   Clear
11:52 PM 33.1 °F 20.1 °F 28.0 °F 82% 30.23 in 10.0 mi NW 25.3 mph - N/A   Clear